Time,TemperatureF,DewpointF,PressureIn,WindDirection,WindDirectionDegrees,WindSpeedMPH,WindSpeedGustMPH,Humidity,HourlyPrecipIn,Conditions,Clouds,dailyrainin,SoftwareType,DateUTC
2013-04-07 00:02:00,59.0,42.0,-100.00,South,169,1.0,5.0,54,0.00,,,0.00,,2013-04-07 05:02:00,
2013-04-07 00:12:00,59.0,42.0,-100.00,South,169,1.0,5.0,54,0.00,,,0.00,,2013-04-07 05:12:00,
2013-04-07 00:22:00,59.0,43.0,-100.00,South,178,0.0,1.0,55,0.00,,,0.00,,2013-04-07 05:22:00,
2013-04-07 00:33:00,58.0,42.0,-100.00,South,184,1.0,2.0,55,0.00,,,0.00,,2013-04-07 05:33:00,
2013-04-07 00:42:00,58.0,42.0,-100.00,South,184,1.0,2.0,55,0.00,,,0.00,,2013-04-07 05:42:00,
2013-04-07 00:52:00,58.0,42.0,-100.00,South,184,0.0,2.0,56,0.00,,,0.00,,2013-04-07 05:52:00,
2013-04-07 01:02:00,57.0,42.0,-100.00,South,169,0.0,5.0,57,0.00,,,0.00,,2013-04-07 06:02:00,
2013-04-07 01:12:00,57.0,42.0,-100.00,South,169,0.0,5.0,57,0.00,,,0.00,,2013-04-07 06:12:00,
2013-04-07 01:22:00,57.0,42.0,-100.00,South,175,0.0,3.0,58,0.00,,,0.00,,2013-04-07 06:22:00,
2013-04-07 01:32:00,57.0,42.0,13.65,South,174,1.0,3.0,58,0.00,,,0.00,,2013-04-07 06:32:00,
2013-04-07 01:42:00,57.0,42.0,13.65,South,174,1.0,3.0,58,0.00,,,0.00,,2013-04-07 06:42:00,
2013-04-07 01:52:00,57.0,42.0,-100.00,SE,138,0.0,4.0,58,0.00,,,0.00,,2013-04-07 06:52:00,
2013-04-07 02:02:00,57.0,42.0,22.02,SSE,164,1.0,4.0,58,0.00,,,0.00,,2013-04-07 07:02:00,
2013-04-07 02:12:00,57.0,42.0,22.02,SSE,164,1.0,4.0,58,0.00,,,0.00,,2013-04-07 07:12:00,
2013-04-07 02:22:00,57.0,42.0,26.47,South,175,2.0,7.0,58,0.00,,,0.00,,2013-04-07 07:22:00,
2013-04-07 02:32:00,57.0,42.0,-100.00,SSE,167,3.0,7.0,58,0.00,,,0.00,,2013-04-07 07:32:00,
2013-04-07 02:42:00,57.0,42.0,-100.00,SSE,167,3.0,7.0,58,0.00,,,0.00,,2013-04-07 07:42:00,
2013-04-07 02:52:00,57.0,43.0,-100.00,South,181,2.0,7.0,59,0.00,,,0.00,,2013-04-07 07:52:00,
2013-04-07 03:02:00,57.0,43.0,-100.00,SSE,163,3.0,7.0,60,0.00,,,0.00,,2013-04-07 08:02:00,
2013-04-07 03:12:00,57.0,43.0,-100.00,SSE,163,3.0,7.0,60,0.00,,,0.00,,2013-04-07 08:12:00,
2013-04-07 03:22:00,57.0,44.0,-100.00,SSW,204,2.0,6.0,62,0.00,,,0.00,,2013-04-07 08:22:00,
2013-04-07 03:32:00,56.0,44.0,-100.00,South,169,1.0,5.0,63,0.00,,,0.00,,2013-04-07 08:32:00,
2013-04-07 03:42:00,56.0,44.0,-100.00,South,169,1.0,5.0,63,0.00,,,0.00,,2013-04-07 08:42:00,
2013-04-07 03:53:00,56.0,44.0,-100.00,South,173,0.0,5.0,64,0.00,,,0.00,,2013-04-07 08:53:00,
2013-04-07 04:02:00,55.0,44.0,0.69,South,177,0.0,3.0,66,0.00,,,0.00,,2013-04-07 09:02:00,
2013-04-07 04:12:00,55.0,44.0,0.69,South,177,0.0,3.0,66,0.00,,,0.00,,2013-04-07 09:12:00,
2013-04-07 04:22:00,54.0,43.0,-100.00,South,177,0.0,3.0,67,0.00,,,0.00,,2013-04-07 09:22:00,
2013-04-07 04:33:00,54.0,44.0,-100.00,South,177,0.0,1.0,69,0.00,,,0.00,,2013-04-07 09:33:00,
2013-04-07 04:43:00,54.0,44.0,-100.00,South,177,0.0,1.0,69,0.00,,,0.00,,2013-04-07 09:43:00,
2013-04-07 04:53:00,53.0,43.0,-100.00,South,177,0.0,2.0,70,0.00,,,0.00,,2013-04-07 09:53:00,
2013-04-07 05:03:00,53.0,44.0,-100.00,South,177,0.0,1.0,71,0.00,,,0.00,,2013-04-07 10:03:00,
2013-04-07 05:13:00,53.0,44.0,-100.00,South,177,0.0,1.0,71,0.00,,,0.00,,2013-04-07 10:13:00,
2013-04-07 05:23:00,53.0,44.0,-100.00,South,178,0.0,4.0,72,0.00,,,0.00,,2013-04-07 10:23:00,
2013-04-07 05:33:00,52.0,44.0,18.08,South,178,0.0,1.0,73,0.00,,,0.00,,2013-04-07 10:33:00,
2013-04-07 05:43:00,52.0,44.0,18.08,South,178,0.0,1.0,73,0.00,,,0.00,,2013-04-07 10:43:00,
2013-04-07 05:54:00,52.0,44.0,-100.00,South,178,0.0,0.0,74,0.00,,,0.00,,2013-04-07 10:54:00,
2013-04-07 06:02:00,52.0,44.0,1.49,South,178,0.0,1.0,74,0.00,,,0.00,,2013-04-07 11:02:00,
2013-04-07 06:12:00,52.0,44.0,1.49,South,178,0.0,1.0,74,0.00,,,0.00,,2013-04-07 11:12:00,
2013-04-07 06:22:00,51.0,43.0,-100.00,South,178,0.0,0.0,75,0.00,,,0.00,,2013-04-07 11:22:00,
2013-04-07 06:32:00,51.0,44.0,-100.00,South,178,0.0,0.0,76,0.00,,,0.00,,2013-04-07 11:32:00,
2013-04-07 06:42:00,51.0,44.0,-100.00,South,178,0.0,0.0,76,0.00,,,0.00,,2013-04-07 11:42:00,
2013-04-07 06:53:00,51.0,44.0,-100.00,South,178,0.0,0.0,77,0.00,,,0.00,,2013-04-07 11:53:00,
2013-04-07 07:02:00,51.0,44.0,-100.00,South,172,0.0,1.0,78,0.00,,,0.00,,2013-04-07 12:02:00,
2013-04-07 07:12:00,51.0,44.0,-100.00,South,172,0.0,1.0,78,0.00,,,0.00,,2013-04-07 12:12:00,
2013-04-07 07:22:00,50.0,44.0,-100.00,South,172,0.0,1.0,79,0.00,,,0.00,,2013-04-07 12:22:00,
2013-04-07 07:43:00,50.0,44.0,-100.00,SSE,164,0.0,0.0,81,0.00,,,0.00,,2013-04-07 12:43:00,
2013-04-07 07:53:00,52.0,46.0,-100.00,SSE,154,0.0,1.0,81,0.00,,,0.00,,2013-04-07 12:53:00,
2013-04-07 08:03:00,54.0,48.0,25.43,South,180,2.0,6.0,79,0.00,,,0.00,,2013-04-07 13:03:00,
2013-04-07 08:13:00,54.0,48.0,25.43,South,180,2.0,6.0,79,0.00,,,0.00,,2013-04-07 13:13:00,
2013-04-07 08:22:00,56.0,49.0,-100.00,SSE,162,1.0,5.0,76,0.00,,,0.00,,2013-04-07 13:22:00,
2013-04-07 08:32:00,58.0,50.0,-100.00,SSE,160,2.0,9.0,74,0.00,,,0.00,,2013-04-07 13:32:00,
2013-04-07 08:42:00,58.0,50.0,-100.00,SSE,160,2.0,9.0,74,0.00,,,0.00,,2013-04-07 13:42:00,
2013-04-07 08:53:00,59.0,50.0,-100.00,South,169,3.0,10.0,72,0.00,,,0.00,,2013-04-07 13:53:00,
2013-04-07 09:02:00,59.0,50.0,-100.00,SSW,200,3.0,11.0,72,0.00,,,0.00,,2013-04-07 14:02:00,
2013-04-07 09:12:00,59.0,50.0,-100.00,SSW,200,3.0,11.0,72,0.00,,,0.00,,2013-04-07 14:12:00,
2013-04-07 09:23:00,60.0,51.0,-100.00,South,171,3.0,7.0,73,0.00,,,0.00,,2013-04-07 14:23:00,
2013-04-07 09:32:00,61.0,52.0,32.63,South,188,3.0,8.0,72,0.00,,,0.00,,2013-04-07 14:32:00,
2013-04-07 09:43:00,61.0,52.0,32.63,South,188,3.0,8.0,72,0.00,,,0.00,,2013-04-07 14:43:00,
2013-04-07 09:54:00,61.0,52.0,-100.00,South,186,5.0,9.0,72,0.00,,,0.00,,2013-04-07 14:54:00,
2013-04-07 10:02:00,62.0,53.0,-100.00,SSE,161,1.0,10.0,72,0.00,,,0.00,,2013-04-07 15:02:00,
2013-04-07 10:12:00,64.0,54.0,-100.00,SW,225,2.0,7.0,69,0.00,,,0.00,,2013-04-07 15:12:00,
2013-04-07 10:22:00,64.0,54.0,-100.00,SW,225,2.0,7.0,69,0.00,,,0.00,,2013-04-07 15:22:00,
2013-04-07 10:33:00,66.0,55.0,-100.00,SSW,194,3.0,8.0,68,0.00,,,0.00,,2013-04-07 15:33:00,
2013-04-07 10:44:00,66.0,55.0,-100.00,SSW,194,3.0,8.0,68,0.00,,,0.00,,2013-04-07 15:44:00,
2013-04-07 10:55:00,67.0,55.0,-100.00,South,186,3.0,7.0,65,0.00,,,0.00,,2013-04-07 15:55:00,
2013-04-07 11:03:00,67.0,54.0,7.43,East,90,3.0,8.0,64,0.00,,,0.00,,2013-04-07 16:03:00,
2013-04-07 11:13:00,67.0,54.0,7.43,East,90,3.0,8.0,64,0.00,,,0.00,,2013-04-07 16:13:00,
2013-04-07 11:24:00,68.0,54.0,6.07,South,188,2.0,11.0,60,0.00,,,0.00,,2013-04-07 16:24:00,
2013-04-07 11:33:00,69.0,53.0,4.07,South,182,2.0,13.0,57,0.00,,,0.00,,2013-04-07 16:33:00,
2013-04-07 11:42:00,69.0,53.0,4.07,South,182,2.0,13.0,57,0.00,,,0.00,,2013-04-07 16:42:00,
2013-04-07 11:54:00,69.0,52.0,28.69,South,188,3.0,11.0,55,0.00,,,0.00,,2013-04-07 16:54:00,
2013-04-07 12:03:00,70.0,53.0,-100.00,SW,217,7.0,15.0,54,0.00,,,0.00,,2013-04-07 17:03:00,
2013-04-07 12:13:00,70.0,53.0,-100.00,SW,217,7.0,15.0,54,0.00,,,0.00,,2013-04-07 17:13:00,
2013-04-07 12:23:00,70.0,53.0,-100.00,South,182,5.0,11.0,55,0.00,,,0.00,,2013-04-07 17:23:00,
2013-04-07 12:33:00,72.0,53.0,-100.00,South,170,6.0,19.0,52,0.00,,,0.00,,2013-04-07 17:33:00,
2013-04-07 12:43:00,72.0,53.0,-100.00,South,170,6.0,19.0,52,0.00,,,0.00,,2013-04-07 17:43:00,
2013-04-07 12:54:00,70.0,52.0,2.99,WSW,238,3.0,16.0,53,0.00,,,0.00,,2013-04-07 17:54:00,
2013-04-07 13:02:00,70.0,52.0,13.62,SSW,198,3.0,13.0,52,0.00,,,0.00,,2013-04-07 18:02:00,
2013-04-07 13:13:00,70.0,52.0,13.62,SSW,198,3.0,13.0,52,0.00,,,0.00,,2013-04-07 18:13:00,
2013-04-07 13:23:00,70.0,50.0,2.93,SW,215,7.0,14.0,50,0.00,,,0.00,,2013-04-07 18:23:00,
2013-04-07 13:32:00,71.0,52.0,-100.00,SE,136,4.0,12.0,52,0.00,,,0.00,,2013-04-07 18:32:00,
2013-04-07 13:43:00,71.0,52.0,-100.00,SE,136,4.0,12.0,52,0.00,,,0.00,,2013-04-07 18:43:00,
2013-04-07 13:53:00,72.0,52.0,-100.00,WSW,247,3.0,11.0,50,0.00,,,0.00,,2013-04-07 18:53:00,
2013-04-07 14:02:00,73.0,53.0,-100.00,South,190,2.0,9.0,50,0.00,,,0.00,,2013-04-07 19:02:00,
2013-04-07 14:12:00,73.0,53.0,-100.00,South,190,2.0,9.0,50,0.00,,,0.00,,2013-04-07 19:12:00,
2013-04-07 14:22:00,73.0,53.0,-100.00,West,267,3.0,19.0,49,0.00,,,0.00,,2013-04-07 19:22:00,
2013-04-07 14:32:00,74.0,52.0,-100.00,East,82,4.0,12.0,47,0.00,,,0.00,,2013-04-07 19:32:00,
2013-04-07 14:42:00,74.0,52.0,-100.00,East,82,4.0,12.0,47,0.00,,,0.00,,2013-04-07 19:42:00,
2013-04-07 14:55:00,74.0,52.0,-100.00,NNE,24,3.0,13.0,47,0.00,,,0.00,,2013-04-07 19:55:00,
2013-04-07 15:02:00,74.0,52.0,-100.00,WSW,250,3.0,10.0,47,0.00,,,0.00,,2013-04-07 20:02:00,
2013-04-07 15:13:00,74.0,52.0,-100.00,WSW,250,3.0,10.0,47,0.00,,,0.00,,2013-04-07 20:13:00,
2013-04-07 15:22:00,74.0,52.0,-100.00,West,266,5.0,17.0,47,0.00,,,0.00,,2013-04-07 20:22:00,
2013-04-07 15:32:00,74.0,52.0,-100.00,WSW,246,4.0,8.0,47,0.00,,,0.00,,2013-04-07 20:32:00,
2013-04-07 15:43:00,74.0,52.0,-100.00,WSW,246,4.0,8.0,47,0.00,,,0.00,,2013-04-07 20:43:00,
2013-04-07 15:53:00,75.0,53.0,-100.00,South,171,2.0,8.0,46,0.00,,,0.00,,2013-04-07 20:53:00,
2013-04-07 16:03:00,75.0,52.0,-100.00,SSW,196,5.0,10.0,44,0.00,,,0.00,,2013-04-07 21:03:00,
2013-04-07 16:13:00,75.0,52.0,-100.00,SSW,196,5.0,10.0,44,0.00,,,0.00,,2013-04-07 21:13:00,
2013-04-07 16:22:00,74.0,51.0,-100.00,WSW,246,3.0,15.0,45,0.00,,,0.00,,2013-04-07 21:22:00,
2013-04-07 16:33:00,73.0,53.0,2.96,SW,215,2.0,9.0,49,0.00,,,0.00,,2013-04-07 21:33:00,
2013-04-07 16:43:00,73.0,53.0,2.96,SW,215,2.0,9.0,49,0.00,,,0.00,,2013-04-07 21:43:00,
2013-04-07 16:55:00,73.0,52.0,-100.00,SW,223,3.0,7.0,48,0.00,,,0.00,,2013-04-07 21:55:00,
2013-04-07 17:03:00,71.0,51.0,2.98,WSW,255,3.0,10.0,49,0.00,,,0.00,,2013-04-07 22:03:00,
2013-04-07 17:13:00,71.0,51.0,2.98,WSW,255,3.0,10.0,49,0.00,,,0.00,,2013-04-07 22:13:00,
2013-04-07 17:23:00,71.0,51.0,-100.00,WSW,238,3.0,6.0,50,0.00,,,0.00,,2013-04-07 22:23:00,
2013-04-07 17:33:00,71.0,51.0,-100.00,WSW,257,2.0,7.0,49,0.00,,,0.00,,2013-04-07 22:33:00,
2013-04-07 17:43:00,71.0,51.0,-100.00,WSW,257,2.0,7.0,49,0.00,,,0.00,,2013-04-07 22:43:00,
2013-04-07 17:53:00,71.0,51.0,-100.00,SSW,209,1.0,7.0,50,0.00,,,0.00,,2013-04-07 22:53:00,
2013-04-07 18:03:00,71.0,51.0,2.93,South,174,1.0,4.0,50,0.00,,,0.00,,2013-04-07 23:03:00,
2013-04-07 18:13:00,71.0,51.0,2.93,South,174,1.0,4.0,50,0.00,,,0.00,,2013-04-07 23:13:00,
2013-04-07 18:22:00,71.0,52.0,-100.00,South,175,0.0,3.0,51,0.00,,,0.00,,2013-04-07 23:22:00,
2013-04-07 18:32:00,70.0,52.0,-100.00,South,175,0.0,3.0,52,0.00,,,0.00,,2013-04-07 23:32:00,
2013-04-07 18:42:00,70.0,52.0,-100.00,South,175,0.0,3.0,52,0.00,,,0.00,,2013-04-07 23:42:00,
2013-04-07 18:53:00,70.0,52.0,26.47,South,191,0.0,3.0,53,0.00,,,0.00,,2013-04-07 23:53:00,
2013-04-07 19:02:00,70.0,52.0,2.96,South,179,1.0,5.0,52,0.00,,,0.00,,2013-04-08 00:02:00,
2013-04-07 19:12:00,70.0,52.0,2.96,South,179,1.0,5.0,52,0.00,,,0.00,,2013-04-08 00:12:00,
2013-04-07 19:22:00,70.0,52.0,2.97,SSW,192,0.0,3.0,53,0.00,,,0.00,,2013-04-08 00:22:00,
2013-04-07 19:32:00,69.0,51.0,-100.00,SSW,192,0.0,0.0,53,0.00,,,0.00,,2013-04-08 00:32:00,
2013-04-07 19:42:00,69.0,51.0,-100.00,SSW,192,0.0,0.0,53,0.00,,,0.00,,2013-04-08 00:42:00,
2013-04-07 19:53:00,68.0,51.0,-100.00,SSW,192,0.0,0.0,55,0.00,,,0.00,,2013-04-08 00:53:00,
2013-04-07 20:02:00,67.0,51.0,-100.00,SSW,192,0.0,0.0,56,0.00,,,0.00,,2013-04-08 01:02:00,
2013-04-07 20:12:00,67.0,51.0,-100.00,SSW,192,0.0,0.0,56,0.00,,,0.00,,2013-04-08 01:12:00,
2013-04-07 20:22:00,66.0,51.0,-100.00,SSW,192,0.0,0.0,59,0.00,,,0.00,,2013-04-08 01:22:00,
2013-04-07 20:33:00,64.0,50.0,-100.00,SSW,192,0.0,0.0,61,0.00,,,0.00,,2013-04-08 01:33:00,
2013-04-07 20:43:00,64.0,50.0,-100.00,SSW,192,0.0,0.0,61,0.00,,,0.00,,2013-04-08 01:43:00,
2013-04-07 20:55:00,63.0,50.0,-100.00,SSW,192,0.0,0.0,63,0.00,,,0.00,,2013-04-08 01:55:00,
2013-04-07 21:02:00,62.0,51.0,-100.00,SSW,192,0.0,0.0,66,0.00,,,0.00,,2013-04-08 02:02:00,
2013-04-07 21:12:00,62.0,51.0,-100.00,SSW,192,0.0,0.0,66,0.00,,,0.00,,2013-04-08 02:12:00,
2013-04-07 21:22:00,61.0,50.0,-100.00,SSW,192,0.0,0.0,67,0.00,,,0.00,,2013-04-08 02:22:00,
2013-04-07 21:33:00,60.0,50.0,-100.00,SSW,192,0.0,0.0,69,0.00,,,0.00,,2013-04-08 02:33:00,
2013-04-07 21:45:00,60.0,50.0,-100.00,SSW,192,0.0,0.0,69,0.00,,,0.00,,2013-04-08 02:45:00,
2013-04-07 21:54:00,59.0,50.0,-100.00,SSW,192,0.0,0.0,71,0.00,,,0.00,,2013-04-08 02:54:00,
2013-04-07 22:06:00,59.0,50.0,-100.00,SSW,192,0.0,0.0,71,0.00,,,0.00,,2013-04-08 03:06:00,
2013-04-07 22:14:00,59.0,50.0,-100.00,SSW,192,0.0,0.0,71,0.00,,,0.00,,2013-04-08 03:14:00,
2013-04-07 22:33:00,59.0,49.0,-100.00,SSW,192,0.0,0.0,70,0.00,,,0.00,,2013-04-08 03:33:00,
2013-04-07 22:47:00,59.0,49.0,-100.00,SSW,192,0.0,0.0,70,0.00,,,0.00,,2013-04-08 03:47:00,
2013-04-07 22:56:00,60.0,50.0,-100.00,SSW,192,0.0,0.0,69,0.00,,,0.00,,2013-04-08 03:56:00,
2013-04-07 23:03:00,60.0,50.0,-100.00,SSW,192,0.0,0.0,69,0.00,,,0.00,,2013-04-08 04:03:00,
2013-04-07 23:12:00,60.0,50.0,-100.00,SSW,192,0.0,0.0,69,0.00,,,0.00,,2013-04-08 04:12:00,
2013-04-07 23:23:00,60.0,50.0,-100.00,SSW,192,0.0,0.0,69,0.00,,,0.00,,2013-04-08 04:23:00,
2013-04-07 23:33:00,60.0,50.0,-100.00,SSW,192,0.0,0.0,69,0.00,,,0.00,,2013-04-08 04:33:00,
2013-04-07 23:44:00,60.0,50.0,-100.00,SSW,192,0.0,0.0,69,0.00,,,0.00,,2013-04-08 04:44:00,
2013-04-07 23:53:00,60.0,50.0,-100.00,South,190,0.0,1.0,69,0.00,,,0.00,,2013-04-08 04:53:00,